This is the latest recevied weather packets stored in our database for station/object KG7MRB. If no packets are shown the sender has not sent any weather packets the latest 10 day(s).
| Time | Temp. | Humidity | Pressure | Rain* | Wind** | Luminosity | Snow |
|---|---|---|---|---|---|---|---|
| 1777229833 | 16.67° C | 33% | 1027.6 hPa | 0 mm | - | 598 W/m² | - |
| 1777229529 | 16.11° C | 34% | 1027.6 hPa | 0 mm | - | 624 W/m² | - |
| 1777229226 | 16.67° C | 34% | 1027.7 hPa | 0 mm | - | 651 W/m² | - |
| 1777228924 | 16.11° C | 37% | 1027.4 hPa | 0 mm | - | 541 W/m² | - |
| 1777228619 | 15.56° C | 33% | 1027.5 hPa | 0 mm | - | 587 W/m² | - |
| 1777228315 | 16.11° C | 31% | 1027.5 hPa | 0 mm | - | 542 W/m² | - |
| 1777228010 | 16.67° C | 32% | 1027.6 hPa | 0 mm | - | 608 W/m² | - |
| 1777227705 | 16.67° C | 30% | 1027.3 hPa | 0 mm | - | 591 W/m² | - |
| 1777227401 | 16.11° C | 33% | 1027.5 hPa | 0 mm | - | 528 W/m² | - |
| 1777227098 | 16.11° C | 36% | 1027.5 hPa | 0 mm | - | 494 W/m² | - |
| 1777226793 | 16.67° C | 32% | 1027.4 hPa | 0 mm | - | 552 W/m² | - |
| 1777226487 | 16.11° C | 32% | 1027.4 hPa | 0 mm | - | 581 W/m² | - |
| 1777226183 | 16.11° C | 32% | 1027.5 hPa | 0 mm | - | 525 W/m² | - |
| 1777225880 | 16.11° C | 35% | 1027.4 hPa | 0 mm | - | 542 W/m² | - |
| 1777225575 | 15.56° C | 36% | 1027.4 hPa | 0 mm | - | 536 W/m² | - |
| 1777225273 | 15.56° C | 38% | 1027.4 hPa | 0 mm | - | 540 W/m² | - |
| 1777224970 | 15.56° C | 38% | 1027.5 hPa | 0 mm | - | 530 W/m² | - |
| 1777224667 | 15.56° C | 36% | 1027.3 hPa | 0 mm | - | 520 W/m² | - |
| 1777224367 | 15.56° C | 35% | 1027.5 hPa | 0 mm | - | 507 W/m² | - |
| 1777224063 | 15.56° C | 35% | 1027.4 hPa | 0 mm | - | 495 W/m² | - |
| 1777223760 | 15° C | 36% | 1027.4 hPa | 0 mm | - | 483 W/m² | - |
| 1777223456 | 15° C | 36% | 1027.6 hPa | 0 mm | - | 470 W/m² | - |
| 1777223154 | 14.44° C | 36% | 1027.6 hPa | 0 mm | - | 461 W/m² | - |
| 1777222850 | 13.33° C | 41% | 1027.7 hPa | 0 mm | - | 449 W/m² | - |
| 1777222549 | 13.33° C | 40% | 1027.5 hPa | 0 mm | - | 439 W/m² | - |
* Rain latest hour (hover to see other rain measurements)
** Current wind speed in m/s (hover to see current wind gust speed)